CAPE
0 0 0 0 0 0 0 0 0 49 89 110 83 306 208 203 216 256 1267 1418 1011 1001 686 1040 1755 1802 1798 1746 1718 1730 1756 1778 1798 1812 1726 1510 1221 735 636 888 1173 1671 1407 1364 936 549 290 232 81
0 0 0 0 0 0 0 0 0 120 151 182 189 131 184 157 27 1195 1428 1541 1063 923 680 429 1732 1822 1769 1664 1538 1526 1616 1688 1673 1603 1385 1103 977 829 832 1191 1430 1526 1316 1105 826 619 404 271 110
0 0 0 0 0 0 0 0 0 87 67 275 333 174 190 138 237 1318 1027 1675 1259 924 563 849 1730 1726 1761 1679 1511 1464 1510 1544 1526 1408 1223 1026 958 1123 1256 1398 1503 1515 1205 1119 1135 992 686 342 206
0 0 0 0 0 0 0 0 0 145 176 224 247 289 187 370 777 792 1197 1706 1322 782 446 1455 1744 1633 1775 1749 1554 1450 1424 1431 1390 1297 1201 1002 846 1111 1392 1554 1587 1634 1479 1341 1219 1281 1338 636 316
0 0 0 0 0 0 0 0 0 12 353 443 366 362 477 263 688 1255 1519 1468 1101 679 334 981 1729 1633 1735 1741 1572 1408 1395 1310 1248 1240 1174 987 967 1113 1294 1423 1360 1344 1394 1525 1336 1264 1449 1229 894
0 0 0 0 0 0 0 0 0 0 193 535 422 374 213 203 1143 1660 1744 1133 1038 892 604 739 1554 1700 1546 1610 1627 1438 1384 1362 1259 1261 1264 1190 1029 1018 1166 1334 1327 1146 1170 1445 1542 1521 1292 1088 866
0 0 0 0 0 0 0 0 0 0 37 542 349 412 659 371 1393 1531 1625 1636 1157 1066 777 663 560 1214 1717 1525 1473 1520 1450 1465 1334 1228 1304 1264 1123 997 991 1170 1201 938 958 1272 1572 1624 1351 1081 894
0 0 0 0 0 0 0 0 142 0 0 377 393 438 331 372 1449 1233 1398 1665 1214 1328 946 709 675 357 499 798 1529 1540 1572 1581 1384 1198 1228 1237 1181 1096 974 686 888 742 739 984 1291 1607 1527 1253 857
0 0 0 0 0 0 0 0 0 4 616 334 441 1188 870 973 1311 1232 1084 1389 1256 1299 1271 968 566 615 350 311 819 1384 1406 1631 1464 1134 1121 745 178 335 407 267 649 611 565 852 1355 1733 1578 1310 945
0 0 0 0 0 0 0 0 0 13 555 695 1229 1105 1219 1299 1493 1566 1012 913 1057 1194 1236 1176 1002 854 716 462 537 569 496 616 645 543 497 250 317 380 189 329 565 483 452 585 1033 1495 1475 1251 1142
0 0 0 0 0 0 0 0 0 41 700 761 809 1574 1242 1444 1650 1630 1288 800 776 996 1087 1178 1393 1456 995 766 815 636 568 768 944 903 900 668 409 378 296 309 237 294 320 41 365 880 1058 1195 1244
0 0 0 0 0 0 0 0 0 20 744 598 665 1423 1164 1533 1842 1751 1524 1168 810 957 965 1090 1352 1620 1475 1267 1236 1072 681 810 730 749 1039 831 663 515 393 263 224 427 153 123 87 180 831 1204 1246
0 0 0 0 0 0 0 0 0 0 0 0 0 1398 1299 1398 1645 1633 1592 1261 1059 890 985 1111 1367 1598 1628 1777 1463 1335 1206 1025 920 1001 995 794 645 585 457 379 266 196 291 164 69 42 110 638 1080
0 0 0 0 0 0 0 0 0 0 0 0 437 980 1526 1364 938 952 1596 1561 1332 1169 1097 1053 1315 1556 1380 1651 1850 1571 1542 1351 1302 1053 949 1037 902 825 487 495 349 300 337 323 322 232 104 68 201
0 0 0 0 0 0 0 0 0 0 0 0 1 609 1767 1648 771 475 1227 2031 1759 1502 1317 1181 1328 1446 1539 1712 1838 1622 1478 1433 1397 1209 1320 1251 1227 1133 754 584 453 438 809 854 730 726 428 265 92
0 0 0 0 0 0 0 0 0 0 0 0 0 18 574 1746 1588 1140 774 984 1662 1679 1473 1338 1022 1168 1565 1553 1763 1553 1471 1449 1447 1403 1313 1214 1213 1184 1022 705 594 545 863 969 1034 1041 741 563 437
0 0 0 0 0 0 0 0 0 0 0 0 0 0 6 234 1133 1557 1427 1177 1165 1436 1685 1488 1282 1169 1301 1469 1476 1513 1432 1438 1319 1376 1367 1351 1240 1140 1129 880 704 853 944 1087 1045 1065 917 945 802
0 0 0 0 0 0 0 0 0 0 0 0 0 0 0 0 0 0 0 26 83 375 1324 1700 1382 1401 1395 1211 1296 1140 1069 1113 1140 1173 1183 1165 1008 945 991 892 1019 1135 1200 1421 1353 1283 1081 1000 999
0 0 0 0 0 0 0 0 0 0 0 0 0 0 0 0 0 0 0 0 0 48 926 1436 1586 1588 1384 1192 1047 1035 1071 1256 1478 1261 1211 1089 1015 856 912 904 1061 990 1131 1395 1762 1393 1439 1306 1220
0 0 0 0 0 0 0 0 0 0 0 0 0 0 0 0 0 0 0 0 0 0 756 1504 1663 1862 1526 1400 1559 1225 1317 1598 1635 1419 1303 1160 1018 925 767 648 514 669 795 1423 1468 1465 1345 965 1036
0 0 0 0 0 0 0 0 0 0 0 0 0 0 0 0 0 0 0 0 0 0 0 817 2133 1880 1534 1793 1619 1619 1860 1693 1854 1625 1741 1587 1197 980 880 758 762 555 567 612 1412 1619 1438 1148 702
0 0 0 0 0 0 0 0 0 0 0 0 0 0 0 0 0 0 0 0 0 0 0 0 730 2286 1807 1706 1854 2146 1936 1932 2013 2286 2132 1950 1395 1248 1042 1005 762 434 554 1302 1490 1688 1179 843 573
0 0 0 0 0 0 0 0 0 0 0 0 0 0 0 0 0 0 0 0 0 0 0 0 0 1524 2455 2079 2149 2299 2518 2412 2458 2280 2672 2528 1626 1413 1114 924 699 600 851 1684 1676 1501 1201 1135 1047
0 0 0 0 0 0 0 0 0 0 0 0 0 0 0 0 0 0 0 0 0 8 83 0 0 382 1825 2060 1960 2709 2928 3142 2523 2467 2114 1557 1599 1294 1145 1100 1059 855 959 1735 1730 1654 1689 1550 1359
0 0 0 0 0 0 0 0 2 0 0 0 0 0 0 0 0 0 0 0 0 0 49 141 30 235 1093 2039 1957 2076 2535 2984 3022 3010 2042 1725 1541 1179 996 1311 1309 1274 1448 1954 1888 1940 1868 1953 1697
0 2 15 14 23 20 0 0 0 0 0 0 0 0 0 0 0 0 0 0 0 0 0 84 433 675 1461 1928 2034 2102 2076 2316 2402 2653 1897 1484 1375 1399 1501 1359 1445 1564 1945 2243 2068 1763 1815 2003 2018
0 0 0 4 0 17 31 0 0 0 0 0 0 0 0 0 0 0 0 0 0 0 0 0 3 425 789 1555 1833 1799 1555 1513 1968 2027 1893 1552 2073 1550 1763 1372 1422 1549 2020 2265 2195 1827 1993 1959 1990
0 0 5 2 35 28 9 1 19 0 0 0 0 0 0 0 0 0 0 0 0 0 0 0 0 0 98 767 1325 1862 1832 1400 1008 1158 1514 1846 2154 1819 1707 1585 1585 1512 1912 2167 2309 2020 2112 2080 1841
0 0 0 0 0 17 42 17 0 0 0 0 0 0 0 0 0 0 0 0 0 0 0 0 0 0 0 14 391 940 1252 1627 1718 1320 1258 1397 1745 1869 1834 1749 1779 1603 1721 2228 2325 2292 2089 2119 1884
0 0 0 0 0 0 0 1 0 0 0 0 0 0 0 0 0 0 0 0 0 0 0 0 0 0 0 0 0 16 157 670 797 1211 1580 1264 1457 1579 1568 1617 1612 1676 1626 2299 2353 2257 2047 2088 1780
CIN
0 0 0 0 0 0 0 0 0 -37 -163 -259 -234 -185 -181 -193 -96 -57 -199 -153 -189 -182 -256 -205 -135 -101 -124 -123 -109 -116 -125 -101 -81 -65 -52 -60 -66 -103 -100 -43 -3 0 0 0 -1 -13 -52 -56 -101
0 0 0 0 0 0 0 0 0 -122 -206 -268 -276 -272 -231 -156 -338 -173 -149 -138 -166 -205 -258 -327 -120 -118 -116 -128 -141 -140 -126 -112 -90 -84 -70 -79 -85 -106 -78 -17 0 0 0 0 -1 -8 -23 -41 -88
0 0 0 0 0 0 0 0 0 -241 -317 -218 -178 -320 -265 -254 -303 -126 -176 -125 -154 -216 -293 -237 -100 -153 -142 -138 -163 -142 -120 -99 -80 -84 -110 -126 -114 -70 -31 -1 0 0 0 0 0 0 -1 -29 -36
0 0 0 0 0 0 0 0 0 -222 -268 -303 -268 -173 -403 -383 -232 -253 -177 -141 -155 -211 -291 -132 -106 -169 -156 -132 -150 -142 -122 -116 -121 -118 -96 -107 -115 -54 -10 0 0 0 0 0 0 -1 0 -1 -24
0 0 0 0 0 0 0 0 0 -35 -182 -205 -254 -175 -236 -462 -336 -220 -167 -163 -165 -220 -296 -177 -89 -138 -129 -116 -150 -161 -146 -128 -100 -85 -95 -104 -93 -74 -33 -3 0 0 0 0 0 0 0 0 0
0 0 0 0 0 0 0 0 0 0 -205 -222 -194 -205 -291 -540 -252 -204 -157 -196 -173 -205 -241 -211 -87 -96 -139 -127 -132 -142 -131 -122 -122 -115 -98 -81 -94 -85 -63 -22 -9 -12 -3 0 0 0 0 0 -2
0 0 0 0 0 0 0 0 0 0 -116 -164 -266 -115 -242 -390 -247 -237 -209 -158 -180 -178 -215 -234 -253 -146 -103 -140 -152 -131 -134 -127 -129 -130 -108 -93 -89 -91 -79 -47 -20 -33 -17 0 0 0 -1 -1 -2
0 0 0 0 0 0 0 0 -286 -12 0 -265 -230 -103 -135 -313 -271 -268 -224 -174 -200 -167 -207 -247 -260 -290 -259 -183 -112 -123 -112 -111 -132 -146 -116 -98 -90 -90 -91 -112 -60 -59 -47 -15 0 0 0 -1 -5
0 0 0 0 0 0 0 0 0 -27 -174 -218 -213 -136 -227 -288 -271 -248 -270 -219 -221 -202 -197 -233 -283 -262 -286 -274 -190 -115 -123 -110 -106 -132 -124 -170 -201 -168 -148 -165 -102 -80 -69 -18 0 0 0 0 -1
0 0 0 0 0 0 0 0 0 -20 -125 -99 -82 -272 -293 -264 -238 -198 -248 -272 -267 -231 -209 -200 -231 -256 -268 -290 -240 -207 -208 -190 -181 -187 -178 -207 -189 -150 -170 -141 -101 -92 -91 -53 -2 0 0 -1 0
0 0 0 0 0 0 0 0 0 -44 -53 -51 -24 -119 -253 -255 -230 -175 -203 -236 -253 -243 -228 -223 -198 -186 -229 -239 -212 -219 -219 -194 -160 -148 -141 -163 -191 -164 -139 -123 -114 -101 -99 -115 -60 -6 0 0 0
0 0 0 0 0 0 0 0 0 -47 -24 -58 -89 -105 -233 -242 -206 -176 -200 -203 -267 -287 -275 -265 -235 -191 -190 -174 -191 -200 -257 -222 -184 -184 -134 -139 -134 -150 -132 -112 -108 -86 -104 -98 -107 -65 -10 0 0
0 0 0 0 0 0 0 0 0 0 0 0 0 -131 -181 -208 -198 -207 -188 -217 -234 -266 -284 -300 -270 -239 -210 -174 -185 -190 -211 -210 -193 -179 -147 -138 -129 -124 -113 -110 -104 -106 -89 -90 -89 -103 -82 -23 -1
0 0 0 0 0 0 0 0 0 0 0 0 -118 -49 -90 -158 -236 -271 -238 -215 -251 -266 -261 -284 -294 -259 -277 -219 -173 -188 -189 -186 -186 -185 -167 -143 -119 -112 -115 -100 -93 -86 -77 -62 -55 -55 -74 -87 -73
0 0 0 0 0 0 0 0 0 0 0 0 -22 -72 -80 -87 -211 -246 -212 -183 -204 -240 -257 -290 -280 -272 -272 -238 -208 -221 -228 -184 -176 -182 -151 -131 -114 -100 -101 -93 -83 -68 -39 -38 -41 -45 -69 -65 -85
0 0 0 0 0 0 0 0 0 0 0 0 0 -238 -98 -63 -135 -139 -199 -238 -217 -245 -290 -296 -293 -295 -276 -271 -218 -223 -208 -193 -173 -161 -161 -150 -123 -95 -73 -90 -86 -65 -45 -29 -25 -33 -45 -49 -57
0 0 0 0 0 0 0 0 0 0 0 0 0 0 -83 -123 -138 -146 -171 -200 -241 -260 -260 -302 -319 -302 -316 -278 -237 -216 -204 -179 -163 -158 -151 -142 -115 -93 -70 -76 -70 -54 -39 -30 -31 -33 -44 -42 -42
0 0 0 0 0 0 0 0 0 0 0 0 0 0 0 0 0 0 0 -116 -188 -412 -296 -262 -307 -302 -305 -284 -280 -245 -222 -188 -172 -173 -170 -161 -140 -119 -96 -78 -48 -31 -18 -12 -19 -24 -44 -38 -38
0 0 0 0 0 0 0 0 0 0 0 0 0 0 0 0 0 0 0 0 0 -223 -356 -319 -275 -290 -308 -301 -271 -225 -211 -179 -179 -175 -187 -183 -159 -145 -104 -69 -48 -37 -22 -7 -6 -19 -13 -21 -35
0 0 0 0 0 0 0 0 0 0 0 0 0 0 0 0 0 0 0 0 0 0 -356 -311 -314 -282 -331 -280 -255 -211 -182 -149 -133 -139 -159 -172 -161 -148 -112 -103 -77 -57 -26 -3 -5 -9 -17 -25 -39
0 0 0 0 0 0 0 0 0 0 0 0 0 0 0 0 0 0 0 0 0 0 0 -350 -258 -294 -338 -265 -269 -256 -185 -207 -161 -182 -137 -145 -168 -153 -121 -106 -61 -69 -53 -24 -8 -3 -11 -13 -58
0 0 0 0 0 0 0 0 0 0 0 0 0 0 0 0 0 0 0 0 0 0 0 0 -426 -229 -290 -299 -222 -216 -164 -110 -103 -93 -90 -108 -160 -121 -122 -92 -86 -103 -52 -4 -3 -2 -18 -25 -21
0 0 0 0 0 0 0 0 0 0 0 0 0 0 0 0 0 0 0 0 0 0 0 0 0 -321 -170 -238 -229 -181 -141 -119 -77 -102 -67 -73 -140 -118 -113 -102 -94 -86 -41 -4 -5 -19 -28 -15 -10
0 0 0 0 0 0 0 0 0 0 0 0 0 0 0 0 0 0 0 0 0 -284 -569 0 0 -552 -216 -180 -210 -134 -129 -99 -120 -111 -72 -46 -74 -124 -134 -105 -90 -95 -64 -8 -10 -14 -11 -10 -12
0 0 0 0 0 0 0 0 -1 0 0 0 0 0 0 0 0 0 0 0 0 0 -474 -526 -373 -545 -295 -141 -144 -131 -89 -63 -109 -102 -94 -51 -72 -124 -173 -133 -108 -78 -55 -11 -10 -9 -6 -8 -12
0 -24 0 0 0 -1 0 0 0 0 0 0 0 0 0 0 0 0 0 0 0 0 0 -527 -402 -325 -163 -124 -116 -85 -94 -83 -113 -83 -97 -84 -66 -99 -120 -167 -119 -92 -47 -15 -16 -21 -15 -18 -8
0 0 0 -14 0 -16 -6 0 0 0 0 0 0 0 0 0 0 0 0 0 0 0 0 0 -134 -371 -262 -100 -80 -95 -139 -151 -100 -121 -149 -108 -95 -87 -134 -162 -145 -110 -68 -37 -28 -22 -24 -27 -14
0 0 -7 -3 -6 -1 -7 -5 -15 0 0 0 0 0 0 0 0 0 0 0 0 0 0 0 0 0 -498 -252 -133 -54 -68 -151 -234 -237 -194 -116 -86 -115 -123 -144 -135 -116 -91 -60 -31 -24 -21 -23 -26
0 0 0 0 0 -1 0 -4 0 0 0 0 0 0 0 0 0 0 0 0 0 0 0 0 0 0 0 -188 -351 -196 -160 -76 -96 -179 -192 -162 -114 -93 -117 -127 -106 -111 -102 -77 -63 -41 -37 -30 -33
0 0 0 0 0 0 0 -1 0 0 0 0 0 0 0 0 0 0 0 0 0 0 0 0 0 0 0 0 -11 -519 -391 -217 -204 -150 -109 -163 -135 -121 -116 -109 -108 -80 -96 -77 -69 -52 -44 -29 -41
Wind_Speed
3 5 3 3 4 2 2 4 3 2 4 0 6 3 4 2 2 1 1 11 18 19 15 17 19 16 19 20 18 18 19 18 17 16 15 14 14 13 12 11 10 11 12 13 13 14 14 14 14
4 4 2 1 3 4 2 2 6 2 2 3 3 1 2 1 1 6 8 10 19 19 16 16 17 18 18 17 18 17 17 17 16 16 15 13 12 13 12 11 11 11 12 13 13 13 13 13 12
4 1 3 2 1 2 2 3 4 2 4 7 7 2 1 0 2 8 7 11 16 16 16 15 17 20 19 18 18 17 16 16 15 15 15 15 13 12 11 10 10 10 11 11 11 12 12 11 11
3 3 3 3 3 3 3 3 4 2 4 6 3 3 1 2 4 4 11 16 17 16 15 17 16 18 19 18 18 17 16 15 16 16 13 13 12 11 9 9 9 9 10 11 11 9 11 10 9
2 1 2 2 3 3 6 5 4 7 2 6 4 2 1 4 1 6 13 13 16 15 13 15 14 16 17 18 18 17 16 15 13 13 13 12 11 11 10 9 8 9 9 9 11 10 9 8 8
3 0 3 5 3 3 6 5 6 9 5 4 4 2 3 4 6 9 12 13 15 16 14 14 13 13 15 16 16 16 15 14 14 14 13 12 11 10 10 9 9 9 9 9 10 10 9 9 8
2 2 3 4 3 2 4 9 4 6 9 5 1 2 3 5 9 11 10 11 13 14 14 13 14 13 13 15 16 15 15 14 14 13 13 12 11 10 9 9 8 8 7 7 8 9 8 8 8
3 1 5 3 4 3 4 6 4 4 7 1 3 3 1 7 13 13 12 13 13 13 13 13 12 14 13 12 13 14 14 13 13 13 12 11 11 10 10 8 7 8 7 8 8 9 8 7 7
2 2 4 4 5 2 4 9 1 2 2 3 5 2 3 14 15 14 13 12 11 10 12 13 14 12 12 11 12 11 13 13 11 11 11 10 8 9 9 6 8 8 6 5 6 7 8 7 6
1 3 5 1 2 6 11 5 10 2 4 5 3 4 9 15 15 15 15 14 14 14 14 12 12 12 11 9 10 11 10 9 9 10 10 7 6 6 6 5 6 6 6 5 5 6 7 8 5
2 2 3 3 7 7 8 8 1 1 4 6 6 7 13 15 14 14 14 15 15 13 11 12 11 11 12 10 8 6 6 6 7 10 8 7 5 5 5 4 5 5 6 5 6 7 6 6 5
3 4 3 3 3 3 5 8 5 4 2 4 3 8 15 16 16 15 15 15 16 16 15 13 13 12 13 9 9 8 7 7 7 8 9 6 5 6 5 4 5 4 4 4 4 4 3 6 7
5 2 5 6 8 7 4 9 4 6 5 5 5 12 14 14 13 11 11 12 13 16 16 15 14 13 12 11 9 8 8 8 8 7 9 7 7 6 6 5 4 4 4 4 5 4 4 5 6
5 3 5 5 6 4 4 1 5 7 5 5 2 9 16 16 14 11 12 13 14 13 14 14 15 13 12 12 11 9 8 9 8 8 9 11 8 6 6 5 5 5 5 5 5 4 4 5 5
1 4 5 6 3 3 7 4 8 5 3 8 8 6 8 14 13 16 14 14 14 13 12 16 15 15 15 15 13 10 8 9 8 8 10 11 9 8 7 6 5 5 5 6 4 5 4 5 6
2 2 5 2 3 2 5 6 8 3 5 11 11 9 9 12 17 14 13 13 13 13 17 15 14 16 16 14 11 9 9 8 8 8 8 10 10 9 8 6 5 5 4 5 5 5 5 5 5
2 3 3 3 1 1 4 5 3 4 7 12 12 10 8 8 9 14 15 14 14 16 15 17 17 18 17 13 10 9 8 8 7 7 8 9 10 10 8 7 6 7 5 6 5 5 6 5 6
4 4 2 5 3 2 3 10 4 8 4 5 6 5 8 10 10 12 12 7 6 8 12 13 13 15 15 10 9 7 8 8 8 8 8 9 9 10 8 7 7 6 5 5 5 7 6 5 4
5 3 6 7 5 4 5 5 8 10 13 13 14 13 12 12 11 13 13 11 7 7 9 12 12 13 11 12 12 11 11 9 9 9 11 11 9 9 9 7 7 7 6 5 6 5 7 4 4
6 6 8 8 5 9 4 2 10 12 13 13 13 14 12 13 15 15 15 12 9 9 11 13 15 15 14 12 10 8 9 9 8 7 8 9 10 10 9 9 8 8 7 8 7 7 4 3 4
7 7 4 4 4 2 5 5 7 10 13 14 15 13 14 14 14 16 16 14 13 10 10 13 15 15 14 14 9 7 6 4 6 8 8 10 11 10 10 11 9 7 7 7 9 8 7 5 4
8 9 5 3 6 6 4 5 6 8 11 13 13 14 15 17 17 17 19 18 15 13 12 13 14 16 15 16 13 16 12 12 11 9 8 8 11 11 11 10 10 9 8 7 8 7 6 5 6
6 7 7 5 7 5 6 5 7 6 7 10 11 12 13 14 15 18 19 19 18 15 12 10 12 15 16 16 17 14 14 11 8 8 10 9 8 10 11 11 10 10 8 8 8 8 7 6 6
4 5 3 2 4 8 9 10 9 6 5 7 8 11 12 13 13 14 15 16 18 18 15 10 7 12 15 16 17 17 17 13 11 10 9 8 7 7 10 11 10 10 9 10 9 9 9 7 5
4 6 7 8 8 9 6 9 6 8 7 7 7 9 11 12 12 13 16 18 18 20 20 14 8 7 11 15 16 17 16 13 14 12 10 11 8 8 11 13 12 10 11 11 10 9 9 8 6
9 10 8 12 11 10 3 7 8 8 8 6 6 6 9 12 13 14 14 14 15 16 17 17 11 6 5 8 13 13 14 11 11 11 10 11 10 11 10 13 12 12 12 11 10 8 8 7 7
5 7 3 3 2 6 5 5 4 7 6 5 6 8 10 11 12 13 13 13 14 14 15 15 15 11 7 5 7 9 9 10 10 10 9 9 9 10 11 13 13 13 12 13 12 9 9 8 7
1 4 3 2 6 10 6 6 5 15 7 3 4 7 8 10 12 13 13 13 12 12 12 14 14 14 13 8 5 4 6 7 9 7 10 12 10 12 11 13 14 14 14 14 13 10 10 10 8
2 3 3 2 4 7 11 4 6 11 6 3 2 4 7 9 10 10 11 12 12 12 13 13 14 15 15 14 12 7 4 4 7 10 12 13 12 12 12 13 14 15 15 15 14 13 12 12 11
7 3 3 5 5 1 4 2 7 7 4 1 1 3 6 7 8 8 9 10 12 13 13 13 12 11 12 12 11 12 10 7 4 6 8 10 11 11 12 11 10 14 15 15 16 16 15 15 14
Wind_Direction
156 151 168 194 237 266 40 65 291 170 186 222 162 191 221 346 251 58 354 175 145 145 156 158 146 143 136 134 133 128 126 127 125 124 124 124 121 120 119 121 123 125 123 123 122 121 118 113 109
138 132 165 158 234 192 128 283 17 170 125 151 126 76 200 278 132 103 129 171 159 148 154 156 150 142 138 134 130 127 127 127 127 125 124 123 124 127 128 128 129 131 134 132 135 131 129 124 120
143 1 237 185 170 194 254 226 343 305 196 195 172 248 221 132 107 130 109 143 150 149 149 154 155 146 144 141 133 131 127 126 127 129 134 136 136 134 132 131 131 137 140 139 142 142 138 135 130
161 154 113 233 150 193 265 325 270 211 196 208 167 188 171 51 135 61 147 148 149 151 153 154 161 150 145 143 136 134 135 137 139 139 135 133 132 129 126 128 133 141 147 148 146 143 140 143 140
68 135 138 146 193 269 257 289 270 237 200 162 195 126 217 135 73 132 148 157 154 148 154 161 160 149 145 148 145 143 143 140 138 135 137 138 139 137 134 134 137 142 147 149 150 148 142 143 155
119 253 176 165 199 258 283 289 283 234 202 143 205 244 116 124 144 140 153 156 156 149 159 157 160 154 150 150 147 147 145 146 149 151 147 146 146 148 149 151 150 148 150 153 150 152 147 146 145
132 170 132 152 170 255 341 344 219 249 215 193 41 256 94 173 134 140 147 151 156 159 162 165 162 161 156 157 155 154 156 156 155 154 153 155 158 157 160 157 155 151 145 149 152 153 158 153 148
111 107 145 200 177 86 0 345 322 217 224 76 174 271 111 151 149 144 145 151 159 166 167 164 168 169 169 169 164 162 162 159 164 163 162 163 166 168 169 164 165 164 160 164 164 164 164 166 159
166 143 181 185 201 2 352 350 100 304 207 176 188 284 22 144 149 143 142 148 161 172 172 173 175 172 173 175 174 172 170 170 162 168 177 170 183 183 173 172 159 178 171 170 160 170 162 167 158
174 204 194 205 248 312 321 322 331 281 210 200 196 88 131 150 161 158 163 165 176 180 182 183 181 176 174 177 179 189 184 185 187 187 189 195 186 196 204 184 193 190 182 173 170 169 166 196 195
148 220 188 217 249 281 310 305 340 209 220 238 228 172 161 170 173 173 175 182 184 184 186 190 185 188 187 186 184 188 192 187 195 199 191 196 187 194 204 197 198 203 190 203 194 182 206 203 216
214 240 226 281 231 273 284 302 310 198 294 201 236 178 167 184 182 183 183 183 184 190 194 191 191 190 195 194 193 189 192 191 201 202 200 190 201 195 205 208 204 208 209 203 214 204 196 222 221
210 231 204 257 269 251 273 258 301 263 257 309 155 164 175 193 191 196 199 194 196 201 197 195 194 194 194 197 195 199 201 197 199 197 202 208 210 209 209 210 212 217 211 217 211 214 222 222 228
181 253 278 271 263 205 216 263 195 249 253 289 192 193 181 196 200 196 198 200 204 208 207 202 203 198 195 203 199 198 198 200 203 207 208 205 213 211 217 216 216 220 218 220 222 214 218 242 245
159 282 293 223 226 237 183 172 218 223 219 244 256 222 212 205 194 210 204 209 205 209 205 207 204 202 202 199 198 197 200 198 209 210 206 208 211 208 224 226 224 220 219 235 232 226 222 232 231
239 205 256 173 195 70 229 238 237 229 224 235 234 227 224 215 220 220 212 215 212 209 209 204 204 205 209 205 200 198 197 203 211 211 204 210 212 212 215 226 226 226 229 230 232 230 220 232 237
41 242 210 292 34 107 229 237 242 296 277 257 238 246 244 246 237 232 224 224 218 216 208 204 205 208 205 206 209 207 208 217 216 215 211 208 212 210 215 224 227 223 228 231 222 228 232 221 230
127 147 214 267 151 303 209 258 313 357 0 333 7 334 332 322 332 327 307 297 274 241 230 217 206 210 203 200 201 209 211 217 219 218 214 207 209 205 205 216 220 217 229 227 210 221 208 236 230
221 225 257 264 229 266 205 260 35 52 63 61 57 40 23 18 354 2 351 325 273 235 230 225 220 213 199 200 194 206 212 209 217 216 212 206 204 197 198 208 205 209 224 219 208 181 181 178 190
212 246 256 278 227 215 176 169 70 56 57 62 65 58 35 24 17 8 360 354 334 285 218 213 219 213 208 207 208 202 200 214 224 218 215 207 202 194 195 198 206 210 219 212 207 198 179 182 193
237 230 216 265 123 159 152 188 143 79 64 57 48 46 44 34 19 9 8 4 348 331 287 248 221 212 211 219 197 183 172 198 202 209 208 206 197 191 198 205 217 211 217 215 211 207 204 187 174
252 210 211 188 191 203 238 197 131 118 83 59 44 35 25 19 17 13 8 8 360 341 314 277 248 223 206 200 209 201 200 204 212 204 202 189 193 192 195 206 207 204 205 215 205 199 199 188 174
251 176 209 200 206 197 179 230 135 208 86 57 46 40 33 26 18 12 7 1 0 356 344 304 259 233 219 204 206 206 211 210 201 200 187 184 179 195 197 198 195 194 207 203 204 184 190 189 186
112 140 88 103 180 226 202 227 170 177 129 90 70 41 24 15 16 15 10 7 7 4 2 358 293 245 227 218 212 212 215 207 201 197 192 192 189 190 200 197 194 199 202 203 199 191 194 197 191
185 197 219 218 214 251 176 210 36 129 103 79 42 28 23 20 17 10 10 9 7 5 358 356 353 280 249 230 222 222 232 230 220 201 196 192 192 200 198 195 192 193 197 198 195 194 196 193 187
200 219 235 251 245 251 162 207 150 117 96 67 49 28 27 26 19 16 10 2 3 1 1 358 357 350 274 234 228 227 231 232 228 226 215 200 202 207 193 193 190 191 191 195 195 198 202 190 192
150 213 357 165 63 247 172 103 129 133 101 70 42 33 20 13 12 14 11 6 0 360 4 5 6 3 360 286 219 223 228 236 242 233 230 219 209 209 200 198 189 190 194 196 194 203 197 193 192
44 81 193 191 230 240 196 197 172 180 145 99 45 22 11 5 7 7 7 7 360 2 5 9 9 14 6 360 344 262 231 232 229 238 228 229 230 218 210 203 200 192 193 196 198 198 196 192 189
4 149 70 321 309 269 251 200 121 147 137 123 57 25 8 2 2 2 1 3 3 5 9 9 13 12 7 2 360 2 354 289 241 235 229 233 237 234 232 223 212 203 200 197 197 204 196 197 189
297 268 207 234 239 87 316 236 140 130 143 182 5 5 359 352 351 355 3 3 1 3 4 7 5 8 12 4 4 9 10 0 24 317 270 250 238 232 233 240 242 241 212 203 206 202 199 200 193